Terminal Aerodrome Forecast
Issued by NWS State College, PA

Home | Current Version | Previous Version | Text Only | Print | Product List | Glossary On
Versions: 1 2 3 4 5 6 7 8 9 10 11 12 13 14 15 16 17 18 19 20 21 22 23 24 25 26 27 28 29 30 31 32 33 34 35 36 37 38 39 40 41 42 43 44 45 46 47 48 49 50
000
FTUS41 KCTP 231140
TAFIPT
TAF
KIPT 231140Z 2312/2412 06013KT P6SM VCSH SCT005 OVC020
     FM231300 09007KT P6SM BKN025
     FM231800 15006KT P6SM BKN035
     FM240500 VRB03KT 5SM BR OVC025
     FM240900 VRB03KT 2SM BR OVC003=

USA.gov is the U.S. government's official web portal to all federal, state and local government web resources and services.